CAPE
0 0 2 22 3 0 0 3 1 31 1 0 0 0 0 0 0 0 0 0 0 0 0 0 0 0 0 0 0 0 0 0 0 0 0 0 0 0 0 0 0 0 0 0 0
0 0 0 2 22 10 0 0 0 0 18 1 0 0 0 0 0 0 0 0 1 0 0 0 0 0 0 0 0 0 0 0 0 0 0 0 0 0 0 0 0 0 0 6 0
0 0 0 0 5 14 11 0 0 0 11 8 3 0 0 0 0 0 0 0 0 0 0 0 0 0 0 0 0 0 0 0 0 0 0 0 0 0 0 0 0 0 0 8 1
8 0 0 0 0 7 15 1 0 0 20 9 9 0 0 0 0 0 0 0 0 0 0 0 0 0 4 1 0 0 0 0 0 0 0 0 0 0 0 0 0 1 2 29 18
3 0 0 0 0 0 3 11 0 0 9 28 17 3 8 1 0 0 0 0 0 0 0 0 0 0 3 1 0 0 0 0 0 0 0 0 0 0 0 0 0 67 76 72 31
5 1 0 0 0 0 0 0 24 0 0 32 39 28 9 0 0 0 0 0 0 0 0 0 0 0 0 0 1 0 0 0 0 0 0 0 0 0 0 0 0 75 105 123 71
17 20 0 0 0 0 0 0 25 0 0 18 50 7 23 2 0 1 0 0 0 0 0 0 0 0 0 0 0 0 0 0 0 0 0 0 0 0 0 0 0 67 107 145 137
35 24 1 0 0 0 0 0 8 0 0 3 49 9 4 0 6 7 3 0 0 0 0 0 0 0 0 0 0 0 0 0 0 0 0 0 0 0 0 0 10 77 100 136 159
81 41 14 0 0 0 0 0 3 0 16 42 29 4 0 28 22 9 11 0 0 0 0 0 0 0 0 0 0 0 0 0 0 0 0 0 0 0 0 0 0 42 90 101 121
64 50 28 0 3 0 0 33 0 32 32 44 32 2 1 0 7 9 19 3 0 0 0 5 0 0 1 2 0 0 0 0 0 0 0 0 0 0 0 0 0 3 41 58 82
142 66 36 6 9 6 55 0 0 0 13 0 26 1 0 0 4 26 34 14 2 0 0 2 0 0 0 0 0 0 0 0 0 0 0 0 0 0 0 0 0 0 0 28 62
208 83 78 49 37 118 20 0 0 1 0 1 17 0 3 0 0 14 37 1 1 3 0 0 1 0 0 0 0 0 0 0 0 0 0 0 0 0 0 0 0 0 0 3 19
137 128 116 73 224 83 1 1 67 18 8 4 18 5 8 3 0 0 45 0 0 1 0 0 1 4 0 0 1 0 0 1 0 0 0 0 0 0 0 0 0 0 0 0 0
129 148 138 160 38 0 0 27 91 17 0 0 2 17 0 5 0 18 44 18 13 4 2 4 0 5 1 1 2 2 0 0 0 0 1 0 0 0 0 0 0 0 0 0 0
118 223 61 18 15 6 1 50 59 0 0 0 7 8 1 2 0 2 11 3 6 2 10 0 0 4 4 1 0 1 0 0 1 0 0 1 0 0 0 0 0 0 0 0 0
138 79 21 38 39 11 0 19 4 0 0 1 13 30 2 0 1 0 0 0 0 0 0 0 0 2 8 2 0 0 0 0 0 1 0 0 0 0 0 0 0 0 0 0 0
78 25 9 6 1 0 18 3 0 0 0 0 0 3 6 1 0 2 0 1 1 0 0 2 1 0 0 0 0 0 0 0 0 0 0 0 0 0 0 0 0 0 0 0 0
2 0 0 0 0 5 7 0 0 0 0 0 0 0 4 2 3 3 1 0 2 0 1 0 0 0 0 0 0 2 0 0 0 0 0 0 0 0 0 0 0 0 0 0 0
0 0 0 0 0 0 0 0 0 0 1 0 0 0 0 7 2 2 0 0 0 0 0 0 0 0 0 0 0 0 0 0 0 0 0 0 0 0 0 0 0 0 0 0 0
0 0 0 0 0 0 0 0 0 0 0 0 0 0 0 0 0 1 0 0 0 0 0 0 0 0 1 0 0 0 0 0 0 0 0 0 0 0 0 0 0 0 0 0 0
0 0 0 0 0 0 0 0 0 1 1 1 0 0 0 0 0 1 0 0 0 0 2 0 0 0 1 0 0 0 0 0 0 0 0 0 0 0 0 0 0 0 0 0 0
0 0 0 0 0 0 0 1 1 0 2 1 1 1 1 0 0 0 0 0 1 0 2 0 0 0 0 0 0 0 0 0 0 0 0 0 0 0 0 0 0 0 0 0 0
0 0 0 0 0 0 0 0 0 0 0 0 0 0 0 0 0 0 0 2 2 0 0 0 0 0 1 0 0 0 0 0 0 0 0 0 0 0 0 0 0 0 0 0 0
0 0 0 0 0 0 0 0 0 0 0 0 0 0 0 0 0 1 1 0 0 0 0 0 0 0 0 0 0 0 0 0 0 0 0 0 0 0 0 0 0 0 0 0 0
0 0 0 0 0 0 0 0 0 0 0 0 0 0 0 0 0 0 0 1 0 1 0 0 0 0 0 0 0 0 0 0 0 0 0 0 0 0 0 0 0 0 0 0 0
0 0 0 0 0 0 0 0 0 0 0 0 0 0 0 0 0 0 0 0 1 0 0 0 0 0 0 0 0 0 0 0 0 0 0 0 0 0 0 0 0 0 0 0 0
0 0 0 0 0 0 0 0 0 0 0 0 0 0 0 0 0 0 0 0 0 0 0 0 0 0 0 0 0 0 0 0 0 0 0 0 0 0 0 0 0 0 0 0 0
CIN
0 0 0 0 0 0 0 -2 0 0 0 0 0 0 0 0 0 0 0 0 0 0 0 0 0 0 0 0 0 0 0 0 0 0 0 0 0 0 0 0 0 0 0 0 0
0 0 0 0 0 0 0 0 0 0 -7 0 0 0 0 0 0 0 0 0 0 0 0 0 0 0 0 0 0 0 0 0 0 0 0 0 0 0 0 0 0 0 0 -312 0
0 0 0 0 -1 -1 0 0 0 0 -6 -23 -2 0 0 0 0 0 0 0 0 0 0 0 0 0 -6 0 0 0 0 0 0 0 0 0 0 0 0 0 0 0 0 -244 -29
0 0 0 0 0 0 0 0 0 0 -6 -13 -31 0 -1 0 0 0 0 0 0 0 0 0 0 0 -31 -43 0 0 0 0 0 0 0 0 0 0 0 0 0 -30 -30 -257 -234
0 0 0 0 0 0 0 0 0 0 -7 -4 -14 -10 -3 0 0 0 0 0 0 0 0 0 0 0 -41 -32 -5 0 0 0 0 0 0 0 0 0 0 0 0 -258 -240 -227 -231
-1 -1 0 0 0 0 0 0 0 0 -3 -4 -6 -6 -2 0 0 0 0 0 0 0 0 0 0 0 0 0 -7 0 0 0 0 0 0 0 0 0 0 0 0 -219 -209 -205 -222
-6 -1 0 0 0 0 0 0 -1 0 0 -13 -3 -15 -1 -6 0 -19 0 0 0 0 0 0 0 0 0 0 0 0 0 0 0 0 0 0 0 0 0 0 0 -202 -189 -183 -170
-5 -4 0 0 0 0 0 0 -4 0 0 -9 -4 -10 -3 -6 -33 -9 -33 0 0 0 0 0 0 0 0 0 0 0 0 0 0 0 0 0 0 0 0 0 -139 -184 -185 -175 -185
-1 -4 -6 0 0 0 0 0 -5 0 -18 -14 -4 -28 0 -7 -1 -15 -26 0 0 0 0 0 0 0 0 0 0 0 0 0 0 0 0 0 0 0 0 0 0 -162 -170 -176 -177
-7 -7 -5 0 -12 0 0 -6 0 -1 -12 -17 -11 -4 -1 0 -1 -4 -8 -23 0 0 0 -6 0 0 0 0 0 0 0 0 0 0 0 0 0 0 0 0 0 -38 -156 -165 -177
-1 -8 -2 -32 -31 -56 -2 0 0 0 -10 0 -3 -1 0 0 -12 -3 -6 -9 -31 0 0 0 0 0 0 0 0 0 0 0 0 0 0 0 0 0 0 0 0 0 0 -133 -150
-1 -13 -5 -19 -31 -3 -32 0 0 -14 0 0 -9 -6 -9 0 0 -1 -2 -16 -29 -17 0 0 0 0 0 0 0 0 0 0 0 0 0 0 0 0 0 0 0 0 0 -87 -153
-11 -16 -10 -29 -1 -20 -52 -28 -27 -48 -2 -1 -3 -1 -3 -11 0 0 0 -18 0 -24 0 0 0 -2 0 0 0 0 0 0 0 0 0 0 0 0 0 0 0 0 0 0 0
-14 -18 -17 -7 -40 0 0 -22 -35 -58 0 0 -1 -1 -1 -9 0 -27 -8 -11 -29 -27 -3 0 -1 0 0 -1 0 0 -1 0 0 0 0 0 0 0 0 0 0 0 0 0 0
-8 -6 -30 -63 -52 -47 -15 -23 -36 -64 0 0 -1 -9 -7 -1 0 -18 -20 -11 -13 0 -1 0 0 0 0 0 -2 0 0 0 -1 0 0 0 0 0 0 0 0 0 0 0 0
-19 -38 -82 -45 -33 -36 0 -13 -31 0 0 -1 -3 0 0 0 -1 0 -1 0 0 -3 0 0 0 -1 -1 -3 0 0 0 0 0 0 0 0 0 0 0 0 0 0 0 0 0
-39 -78 -48 -105 -12 -21 -13 -3 0 -9 0 0 -2 -4 -1 0 0 0 0 0 0 0 0 0 0 0 0 0 0 0 0 0 0 0 0 0 0 0 0 0 0 -10 0 0 0
-55 -13 0 0 0 -20 -18 0 0 0 0 0 0 0 -3 0 -1 0 0 0 0 0 0 0 0 0 0 0 0 0 0 0 0 0 0 0 0 0 0 0 0 0 0 0 0
0 0 0 0 0 0 0 0 0 0 0 0 0 0 0 -5 0 0 -1 0 0 0 0 0 0 0 0 0 0 0 0 0 0 0 0 0 0 0 0 0 0 0 0 0 0
0 0 0 0 0 0 0 0 0 0 0 0 0 0 0 0 -2 -1 0 0 0 0 0 0 0 0 -1 0 0 0 0 0 0 0 0 0 0 0 0 0 0 0 0 0 0
0 0 0 0 0 0 0 0 0 0 0 0 0 0 0 0 0 0 0 0 0 0 -1 0 0 0 0 0 0 0 0 0 0 0 0 0 0 0 0 0 0 0 0 0 0
0 0 0 0 0 0 0 0 0 0 0 0 0 0 0 0 0 0 0 0 0 0 0 0 0 0 0 0 0 0 0 0 0 0 0 0 0 0 0 0 0 0 0 0 0
0 0 0 0 0 0 0 0 0 0 0 0 0 0 0 0 0 0 0 0 0 -1 0 0 0 0 0 0 0 0 0 0 0 0 0 0 0 0 0 0 0 0 0 0 0
0 0 0 0 0 0 0 0 0 0 0 0 0 0 0 0 0 0 0 0 0 0 0 0 0 0 0 0 0 0 0 0 0 0 0 0 0 0 0 0 0 0 0 0 0
0 0 0 0 0 0 0 0 0 0 0 0 0 0 0 0 0 0 0 0 0 0 0 0 0 0 0 0 0 0 0 0 0 0 0 0 0 0 0 0 0 0 0 0 0
0 0 0 0 0 0 0 0 0 0 0 0 0 0 0 0 0 0 0 0 0 0 0 0 0 0 0 0 0 0 0 0 0 0 0 0 0 0 0 0 0 0 0 0 0
0 0 0 0 0 0 0 0 0 0 0 0 0 0 0 0 0 0 0 0 0 0 0 0 0 0 0 0 0 0 0 0 0 0 0 0 0 0 0 0 0 0 0 0 0
Wind_Speed
20 20 20 20 19 21 22 22 22 22 22 22 27 27 25 25 25 21 25 25 25 25 25 22 27 26 23 26 24 21 26 26 24 20 20 15 13 12 12 5 12 11 8 10 22
22 21 21 21 20 20 22 24 23 24 25 23 25 28 29 27 27 25 23 25 25 23 20 19 21 25 29 25 24 25 27 25 19 23 23 19 14 11 9 7 12 10 8 16 19
23 22 21 21 21 21 21 23 24 24 25 24 24 25 26 26 27 26 23 24 23 22 22 23 24 26 32 28 28 25 29 25 24 23 23 19 15 17 8 15 11 3 8 14 15
24 23 22 22 22 21 22 21 24 25 25 24 24 23 23 24 32 22 19 18 20 21 22 24 21 21 30 35 27 29 25 25 25 23 23 19 17 16 17 20 7 3 12 12 13
25 25 24 23 23 22 22 23 22 24 25 24 23 22 22 26 29 17 19 16 17 20 22 25 24 22 29 31 29 29 27 27 28 27 24 21 21 19 21 18 3 3 7 9 10
25 24 25 24 24 23 23 23 23 23 23 23 22 21 25 34 22 19 17 17 17 19 21 22 26 25 23 27 30 26 28 30 27 27 25 22 22 19 20 9 4 4 5 7 9
24 24 25 24 24 23 24 24 24 23 24 23 20 21 28 30 19 21 26 20 17 19 22 20 22 24 23 28 28 28 31 30 28 25 25 24 24 24 18 8 6 5 4 4 6
26 24 23 23 23 24 24 24 24 23 24 24 20 21 29 23 17 21 18 18 14 16 19 19 19 22 25 23 24 27 28 30 28 26 25 25 27 24 17 11 12 8 7 6 6
23 21 21 22 21 23 23 24 23 23 23 23 19 22 29 17 24 21 20 23 17 15 18 19 21 24 27 26 29 33 36 33 29 23 31 29 28 23 19 16 15 14 10 8 6
17 17 19 20 20 21 21 21 20 20 19 16 20 24 25 27 23 23 22 19 23 16 20 21 22 26 28 31 33 29 29 29 27 26 29 31 28 22 20 20 18 17 15 11 8
19 13 16 18 19 19 17 15 20 23 22 24 23 24 21 22 18 24 21 21 19 24 26 23 28 31 31 34 33 28 28 27 27 25 28 31 28 25 24 24 22 22 18 13 9
14 12 14 18 19 19 13 20 20 18 25 25 22 22 24 20 24 26 22 25 28 32 27 29 34 30 26 27 29 30 29 31 27 25 24 26 26 25 27 25 25 23 19 14 12
12 12 16 20 15 9 14 17 14 14 22 26 23 21 22 21 24 28 26 26 31 32 30 33 31 25 29 30 27 31 33 31 33 29 26 28 29 28 24 24 24 22 18 19 19
12 12 17 5 8 13 16 21 16 14 26 28 28 24 24 22 25 21 23 24 28 35 30 32 28 29 26 31 31 29 30 30 30 29 35 28 35 34 26 25 23 22 17 15 15
10 12 6 12 13 15 17 18 18 15 36 22 25 20 18 21 19 21 18 23 29 28 28 30 29 30 29 29 23 29 19 25 26 28 29 31 34 33 30 30 23 25 16 13 14
12 10 9 13 15 16 17 18 16 20 33 22 22 27 22 27 23 18 22 18 22 23 23 24 20 25 26 22 23 16 18 20 23 27 35 30 33 35 33 34 28 25 21 17 12
6 9 13 15 16 15 15 14 14 25 16 19 23 27 28 27 27 27 27 26 26 34 33 25 26 21 21 21 19 22 21 25 31 33 33 23 24 26 17 21 34 29 26 27 22
7 8 9 12 15 15 13 16 16 15 18 14 17 24 31 26 29 27 31 31 23 22 30 34 37 25 19 26 28 28 27 29 30 31 27 21 29 22 16 13 8 12 9 7 9
13 11 10 13 13 13 16 18 15 15 18 16 14 22 26 30 27 27 30 33 29 25 31 31 32 26 21 19 18 28 31 22 24 24 28 25 22 21 18 16 9 9 10 11 8
16 13 11 13 13 13 16 19 18 17 18 18 15 16 20 24 28 30 30 28 27 25 23 25 29 25 23 19 23 27 18 27 26 31 31 30 27 25 20 14 11 8 6 4 3
14 12 13 13 13 12 16 18 18 16 18 18 19 15 15 16 22 28 31 26 27 26 25 25 26 28 23 28 30 28 30 23 22 24 30 31 30 19 14 8 5 4 1 2 7
14 11 13 13 13 14 15 16 17 16 15 16 19 19 19 20 16 15 21 19 20 22 28 24 26 33 34 25 24 23 24 23 31 32 26 25 25 11 4 4 1 0 4 5 7
12 12 13 13 13 12 13 13 13 14 14 13 14 18 18 16 19 16 18 19 18 17 22 22 27 34 35 33 30 31 27 26 23 21 30 31 25 7 5 4 4 4 5 7 10
13 11 11 11 9 6 8 11 13 12 11 12 13 13 16 16 14 18 20 19 20 20 18 16 22 30 37 36 30 37 33 28 27 31 27 27 18 13 9 8 8 6 7 10 14
11 11 12 7 8 7 11 13 14 13 12 12 14 13 15 15 14 16 18 18 19 22 22 19 23 21 22 26 25 30 32 30 31 27 29 24 19 15 12 10 9 8 10 13 16
12 10 8 7 10 10 11 13 13 13 13 12 10 11 8 9 12 13 15 18 20 20 21 22 21 18 21 19 23 28 28 26 25 23 21 16 17 12 8 9 8 10 14 18 21
10 8 9 10 10 10 11 11 10 10 10 8 6 7 7 8 7 7 5 8 13 16 21 20 19 21 26 20 17 26 27 27 24 21 19 25 19 10 10 10 11 15 18 21 23
Wind_Direction
297 297 296 290 289 283 278 279 278 278 275 275 264 264 270 271 271 271 262 262 263 266 268 267 247 249 258 256 265 265 250 250 253 262 264 264 271 277 282 319 291 296 35 75 123
291 292 293 293 289 288 281 276 278 276 273 273 271 267 267 271 267 269 267 266 265 271 268 264 253 248 248 252 256 252 248 251 262 260 264 260 261 269 289 289 289 302 333 106 119
289 290 291 290 291 288 287 280 276 277 273 270 274 273 268 268 263 263 271 265 266 268 262 260 257 255 246 251 250 255 248 255 259 268 266 258 259 270 273 273 282 324 100 119 123
289 288 287 290 289 288 284 284 276 274 275 269 272 274 272 260 252 261 271 271 267 269 261 256 256 255 248 240 252 252 256 257 260 269 271 259 259 267 267 274 285 119 125 125 134
286 287 284 285 286 286 285 280 280 273 273 268 270 272 266 255 251 262 264 266 272 265 260 252 251 256 245 242 248 252 255 259 260 266 272 262 257 264 265 275 261 133 133 133 137
286 285 284 281 284 283 283 282 278 274 271 270 267 269 261 250 263 251 259 268 272 263 263 257 251 253 252 241 243 252 258 258 260 263 267 255 256 261 265 266 223 162 156 146 144
289 284 283 279 281 283 281 279 276 275 270 269 266 264 257 254 263 250 259 267 274 266 260 263 254 250 252 242 251 258 259 259 258 266 264 254 253 257 263 243 218 217 202 184 168
289 283 280 280 279 282 281 278 274 273 270 267 265 262 256 265 258 257 251 257 280 275 266 262 260 253 249 247 251 249 257 252 257 262 264 253 248 256 257 236 243 239 233 216 189
291 285 279 280 281 282 281 278 272 272 270 263 261 257 257 263 250 251 252 249 261 274 266 258 259 251 245 241 246 249 248 248 255 264 258 249 252 255 254 247 246 249 237 236 224
304 294 287 279 281 283 281 277 276 271 270 262 264 257 260 254 253 249 253 246 249 256 258 253 256 250 245 234 236 239 240 249 251 259 256 248 256 259 258 251 249 248 246 242 228
299 302 292 281 279 281 280 274 262 260 255 246 252 257 265 259 254 246 245 242 244 248 248 247 249 245 244 245 250 242 240 244 254 261 256 253 255 256 260 255 252 252 250 248 239
303 307 294 277 274 273 269 262 261 270 251 248 252 255 263 251 249 243 233 239 239 240 246 250 248 249 247 245 248 238 235 243 251 258 253 254 252 257 255 253 253 256 255 251 259
303 296 284 266 275 279 262 263 276 274 256 245 248 251 251 258 250 240 231 240 237 239 239 244 248 247 244 243 246 244 239 240 246 252 258 257 254 253 256 257 259 262 270 266 268
292 281 260 313 293 268 262 247 264 271 250 246 240 251 254 254 250 244 228 240 241 236 237 246 246 241 242 240 239 245 247 243 246 245 247 252 253 250 253 256 261 262 271 271 273
276 264 298 266 267 253 247 243 248 258 242 249 238 247 245 241 247 238 235 245 234 235 240 242 239 239 236 238 238 246 244 239 243 247 251 252 253 252 253 251 258 269 270 275 281
247 249 274 271 246 241 242 244 237 241 244 249 240 232 233 239 242 235 237 250 246 236 245 244 252 242 240 233 235 229 238 245 250 251 251 254 250 259 255 251 256 266 266 277 278
249 247 252 249 242 259 243 238 237 239 263 253 239 232 226 235 239 235 231 231 240 229 234 239 241 250 235 231 228 231 231 244 246 247 254 256 255 265 270 262 255 253 264 271 277
235 258 292 251 259 258 248 232 237 257 249 273 250 234 230 229 238 235 230 230 241 244 231 233 232 236 236 237 239 227 239 245 248 247 251 256 257 263 275 282 267 243 246 258 285
205 224 268 247 264 265 237 232 243 253 253 262 259 231 235 231 236 232 231 231 240 239 237 234 236 241 243 238 226 236 240 254 253 258 253 256 265 269 266 266 274 273 276 279 289
201 216 256 252 246 258 242 230 243 244 236 239 249 249 233 228 228 228 226 237 237 237 249 240 231 234 242 242 248 243 246 248 257 251 255 254 257 263 259 266 261 266 284 289 347
209 237 242 250 264 267 235 231 227 248 230 231 238 249 233 235 229 230 233 243 242 236 244 240 239 234 243 242 240 244 243 258 258 260 255 251 259 280 266 255 255 264 275 307 322
210 271 257 261 259 252 242 247 245 250 250 245 231 227 228 230 228 237 233 240 237 236 236 241 243 236 237 254 254 255 248 253 249 253 263 266 268 303 221 257 169 336 327 340 338
222 224 221 267 254 248 249 255 257 252 248 249 236 230 230 235 235 239 236 239 235 238 235 240 242 238 243 250 253 247 250 251 260 268 258 261 264 265 265 281 312 325 336 334 328
205 256 251 296 265 283 260 247 238 272 276 250 245 232 233 237 244 231 237 245 242 242 246 252 247 245 242 249 246 244 247 253 254 258 262 265 258 255 251 271 292 310 317 322 324
222 248 222 286 274 286 254 236 234 256 283 298 244 252 249 243 247 245 244 238 236 238 238 246 248 256 260 257 253 247 244 248 252 258 260 265 252 249 263 271 285 301 311 318 320
273 255 270 295 256 274 266 245 244 252 269 281 273 279 267 265 260 252 250 243 243 244 239 249 253 258 260 271 258 250 245 246 254 256 263 256 257 255 274 284 290 301 308 312 315
340 330 303 268 276 275 276 265 259 266 303 329 298 304 282 263 283 311 315 278 258 250 244 255 251 256 254 268 266 256 246 246 253 258 260 258 265 256 269 285 295 302 311 313 318